Total_Precipitation_Accumulation
0.11 0.18 0.21 0.23 0.22 0.20 0.15 0.13 0.20 0.29 0.45 0.60 0.72 0.98 0.86 0.84 0.92 1.01 0.92 0.90 0.86 0.89 0.97 1.12 1.15 1.12 1.16 1.22 1.24 1.36 1.37 1.33 1.41 1.54 1.58 1.63 1.66 1.71 1.79 1.82 1.78 1.95 1.98 2.09
0.11 0.14 0.15 0.18 0.19 0.17 0.12 0.11 0.11 0.23 0.46 0.65 0.75 0.87 0.87 0.74 0.78 1.00 0.99 0.91 0.93 1.02 1.13 1.14 1.04 1.01 1.03 1.00 1.09 1.28 1.39 1.49 1.59 1.59 1.51 1.59 1.64 1.69 1.73 1.79 1.88 1.96 1.99 2.12
0.21 0.17 0.19 0.27 0.23 0.19 0.16 0.15 0.16 0.29 0.46 0.64 0.80 0.75 0.83 0.81 0.75 0.74 0.79 0.84 0.95 1.06 1.08 1.09 1.12 1.08 0.98 0.90 1.03 1.34 1.44 1.46 1.66 1.77 1.68 1.75 1.78 1.80 1.79 1.83 1.99 2.07 2.17 2.23
0.30 0.33 0.39 0.31 0.27 0.26 0.28 0.29 0.26 0.30 0.43 0.65 0.87 0.82 0.79 0.81 0.79 0.70 0.59 0.69 0.83 0.91 0.94 0.98 1.02 1.04 1.01 1.01 1.06 1.32 1.53 1.62 1.90 2.07 1.93 1.93 1.96 1.98 2.03 2.14 2.20 2.29 2.32 2.25
0.45 0.47 0.49 0.43 0.39 0.41 0.50 0.62 0.51 0.52 0.65 0.72 0.71 0.76 0.84 0.79 0.72 0.66 0.64 0.69 0.75 0.87 0.95 1.07 1.22 1.21 1.19 1.27 1.38 1.55 1.73 1.88 2.14 2.36 2.47 2.43 2.28 2.34 2.43 2.43 2.40 2.47 2.53 2.51
0.61 0.68 0.77 0.71 0.58 0.53 0.68 1.12 0.91 0.74 0.77 0.79 0.80 1.02 1.03 0.75 0.66 0.62 0.65 0.75 0.90 1.07 1.11 1.16 1.35 1.37 1.40 1.52 1.76 1.94 1.93 1.96 2.17 2.42 2.53 2.50 2.47 2.63 2.73 2.63 2.53 2.58 2.48 2.36
0.69 0.79 0.80 0.73 0.66 0.71 1.23 1.64 1.20 1.02 1.02 1.06 1.07 1.03 0.90 0.81 0.82 0.72 0.70 0.81 0.86 0.90 1.04 1.17 1.31 1.44 1.63 1.71 1.86 1.97 2.03 2.04 2.15 2.38 2.66 2.61 2.63 2.70 2.78 2.76 2.77 2.77 2.67 2.54
0.84 1.07 1.22 0.80 0.72 1.10 1.49 1.36 1.43 1.42 1.36 1.28 1.12 0.94 0.84 0.84 0.90 0.80 0.79 0.86 0.91 0.86 0.96 1.15 1.37 1.61 1.73 1.76 1.85 2.02 2.06 2.05 2.11 2.37 2.49 2.55 2.71 2.76 2.85 2.94 2.91 2.87 2.84 2.64
1.14 1.35 1.25 0.99 1.06 1.13 1.22 1.36 1.41 1.36 1.37 1.31 1.23 1.10 1.00 0.98 0.96 0.92 0.97 0.96 1.04 1.06 1.07 1.19 1.38 1.61 1.84 1.89 1.89 1.85 1.83 1.84 1.96 2.15 2.26 2.41 2.52 2.46 2.52 2.66 2.63 2.64 2.64 2.55
1.57 1.54 1.38 1.23 1.17 1.15 1.15 1.23 1.19 1.12 1.09 1.08 1.08 1.05 1.03 1.06 1.12 1.12 1.17 1.15 1.17 1.27 1.28 1.30 1.39 1.58 1.77 1.81 1.83 1.82 1.76 1.74 1.86 2.11 2.23 2.31 2.37 2.33 2.38 2.43 2.48 2.54 2.57 2.51
2.01 1.96 1.76 1.59 1.40 1.34 1.22 1.22 1.19 1.09 1.06 1.01 0.95 0.96 0.98 0.96 1.05 1.11 1.16 1.19 1.20 1.28 1.36 1.36 1.40 1.58 1.72 1.78 1.85 1.91 1.89 1.88 2.01 2.09 2.17 2.33 2.40 2.42 2.41 2.38 2.35 2.35 2.34 2.27
2.28 2.09 1.99 1.92 1.52 1.44 1.47 1.34 1.22 1.21 1.18 1.09 0.97 0.95 0.97 0.98 1.04 1.11 1.18 1.30 1.35 1.40 1.41 1.39 1.41 1.53 1.67 1.85 2.02 2.08 2.02 2.01 2.01 1.99 2.04 2.06 2.08 2.05 2.00 1.92 1.91 1.88 1.86 1.77
1.70 1.75 1.86 1.99 1.78 1.52 1.44 1.36 1.27 1.25 1.22 1.14 1.05 1.02 0.94 0.92 1.02 1.13 1.24 1.38 1.54 1.60 1.50 1.44 1.48 1.57 1.66 1.80 2.03 2.16 2.07 1.94 1.85 1.80 1.82 1.82 1.86 1.92 1.96 1.85 1.77 1.67 1.58 1.45
1.67 1.89 2.02 1.99 2.05 1.92 1.63 1.45 1.30 1.23 1.20 1.12 1.07 1.05 1.03 1.01 1.01 1.13 1.31 1.40 1.41 1.46 1.47 1.43 1.44 1.53 1.63 1.81 2.08 2.21 2.10 1.96 1.77 1.68 1.69 1.72 1.83 1.87 1.86 1.86 1.81 1.61 1.44 1.33
1.81 1.91 1.98 1.84 1.83 1.86 1.86 1.79 1.60 1.44 1.29 1.22 1.18 1.17 1.15 1.12 1.11 1.18 1.27 1.41 1.51 1.51 1.42 1.39 1.43 1.47 1.54 1.70 1.89 2.05 2.07 1.95 1.80 1.74 1.75 1.70 1.67 1.72 1.69 1.68 1.74 1.64 1.44 1.36
1.74 1.66 1.73 1.82 1.84 1.74 1.72 1.80 1.74 1.58 1.37 1.28 1.30 1.28 1.22 1.23 1.26 1.30 1.36 1.48 1.72 1.85 1.71 1.55 1.48 1.46 1.50 1.63 1.73 1.72 1.76 1.75 1.70 1.72 1.71 1.65 1.65 1.68 1.73 1.78 1.81 1.72 1.56 1.45
1.59 1.48 1.50 1.63 1.72 1.77 1.71 1.62 1.57 1.51 1.43 1.36 1.35 1.32 1.29 1.30 1.39 1.53 1.62 1.65 1.68 1.67 1.67 1.68 1.60 1.52 1.59 1.70 1.77 1.69 1.57 1.51 1.46 1.43 1.45 1.48 1.50 1.61 1.74 1.80 1.83 1.72 1.49 1.33
1.31 1.28 1.35 1.43 1.52 1.68 1.70 1.56 1.45 1.39 1.37 1.37 1.36 1.33 1.33 1.39 1.62 1.86 1.90 1.82 1.80 1.67 1.53 1.53 1.55 1.55 1.64 1.69 1.77 1.78 1.65 1.46 1.29 1.23 1.27 1.34 1.50 1.65 1.68 1.66 1.60 1.53 1.41 1.29
1.08 1.11 1.17 1.23 1.29 1.39 1.48 1.53 1.53 1.42 1.33 1.35 1.46 1.52 1.51 1.52 1.70 1.95 2.03 2.03 2.00 1.85 1.57 1.41 1.44 1.43 1.52 1.59 1.68 1.65 1.46 1.26 1.08 1.05 1.10 1.25 1.46 1.68 1.70 1.57 1.44 1.38 1.37 1.35
1.08 1.06 1.10 1.11 1.12 1.16 1.27 1.36 1.39 1.42 1.40 1.41 1.49 1.53 1.59 1.64 1.80 2.01 2.14 2.18 2.05 1.82 1.58 1.37 1.26 1.24 1.28 1.42 1.53 1.48 1.33 1.17 1.04 1.01 1.07 1.21 1.40 1.61 1.60 1.47 1.38 1.39 1.38 1.40
1.07 1.06 1.05 1.09 1.12 1.11 1.15 1.21 1.25 1.34 1.42 1.42 1.54 1.65 1.68 1.68 1.80 2.05 2.26 2.23 1.91 1.60 1.42 1.35 1.18 1.09 1.12 1.30 1.36 1.29 1.24 1.17 1.08 1.08 1.16 1.31 1.52 1.65 1.57 1.44 1.40 1.38 1.36 1.44
1.11 1.06 1.04 1.07 1.15 1.16 1.17 1.20 1.20 1.25 1.35 1.33 1.42 1.57 1.62 1.73 1.75 1.76 1.85 2.02 1.85 1.61 1.30 1.15 1.09 1.11 1.18 1.28 1.25 1.20 1.21 1.19 1.15 1.19 1.29 1.41 1.52 1.58 1.54 1.48 1.49 1.44 1.39 1.43
1.13 1.09 1.05 1.04 1.12 1.19 1.13 1.14 1.17 1.29 1.41 1.36 1.36 1.43 1.55 1.69 1.71 1.75 1.67 1.53 1.49 1.45 1.24 1.10 1.08 1.13 1.18 1.19 1.22 1.22 1.27 1.25 1.17 1.17 1.26 1.37 1.45 1.50 1.53 1.55 1.51 1.44 1.44 1.42
1.07 1.06 1.07 1.06 1.08 1.17 1.22 1.18 1.17 1.24 1.32 1.25 1.20 1.20 1.32 1.47 1.45 1.38 1.45 1.51 1.44 1.39 1.24 1.17 1.11 1.09 1.12 1.10 1.17 1.26 1.32 1.25 1.16 1.14 1.20 1.27 1.33 1.41 1.54 1.63 1.57 1.48 1.41 1.34
1.13 1.13 1.11 1.14 1.23 1.33 1.33 1.29 1.29 1.29 1.29 1.21 1.14 1.08 1.11 1.30 1.40 1.31 1.32 1.36 1.35 1.30 1.21 1.19 1.16 1.18 1.16 1.17 1.17 1.19 1.17 1.07 1.05 1.07 1.15 1.26 1.31 1.34 1.41 1.43 1.35 1.36 1.35 1.30
1.23 1.19 1.16 1.19 1.22 1.27 1.27 1.37 1.47 1.45 1.46 1.44 1.27 1.06 1.01 1.10 1.18 1.27 1.35 1.33 1.33 1.36 1.21 1.13 1.09 1.12 1.14 1.22 1.22 1.12 1.02 0.98 0.98 0.98 1.06 1.19 1.22 1.26 1.30 1.29 1.22 1.24 1.23 1.20
1.15 1.13 1.15 1.17 1.17 1.15 1.14 1.24 1.37 1.50 1.63 1.63 1.40 1.10 1.02 1.08 1.18 1.27 1.31 1.33 1.38 1.38 1.31 1.17 1.07 1.06 1.07 1.11 1.11 1.05 1.00 0.93 0.92 0.95 1.00 1.02 1.06 1.15 1.21 1.24 1.17 1.15 1.17 1.16